TimeMST,TemperatureF,Dew PointF,Humidity,Sea Level PressureIn,VisibilityMPH,Wind Direction,Wind SpeedMPH,Gust SpeedMPH,PrecipitationIn,Events,Conditions,WindDirDegrees,DateUTC
12:56 AM,35.1,10.0,35,29.85,-9999.0,Calm,Calm,-,N/A,,Unknown,0,2012-12-13 07:56:00
1:56 AM,37.9,9.0,30,29.84,-9999.0,WNW,6.9,-,N/A,,Unknown,290,2012-12-13 08:56:00
2:56 AM,36.0,8.1,31,29.87,-9999.0,West,5.8,-,N/A,,Unknown,280,2012-12-13 09:56:00
3:56 AM,30.9,7.0,37,29.90,-9999.0,West,6.9,-,N/A,,Unknown,270,2012-12-13 10:56:00
4:56 AM,33.1,6.1,32,29.94,-9999.0,NNW,4.6,-,N/A,,Unknown,340,2012-12-13 11:56:00
5:56 AM,32.0,5.0,32,29.96,-9999.0,West,5.8,-,N/A,,Unknown,270,2012-12-13 12:56:00
6:56 AM,28.0,3.9,36,30.01,-9999.0,NNW,6.9,-,N/A,,Unknown,340,2012-12-13 13:56:00
7:56 AM,36.0,9.0,33,29.99,-9999.0,NW,4.6,-,N/A,,Unknown,320,2012-12-13 14:56:00
8:56 AM,50.0,14.0,24,29.96,-9999.0,NNE,6.9,-,N/A,,Unknown,30,2012-12-13 15:56:00
9:56 AM,54.0,14.0,21,29.96,-9999.0,East,6.9,-,N/A,,Unknown,90,2012-12-13 16:56:00
10:56 AM,57.9,12.9,17,29.93,-9999.0,East,6.9,-,N/A,,Unknown,100,2012-12-13 17:56:00
11:56 AM,60.1,10.9,14,29.90,-9999.0,East,3.5,-,N/A,,Unknown,90,2012-12-13 18:56:00
12:56 PM,62.1,10.0,13,29.88,-9999.0,SE,3.5,-,N/A,,Unknown,140,2012-12-13 19:56:00
1:56 PM,63.0,8.1,11,29.86,-9999.0,South,8.1,-,N/A,,Unknown,190,2012-12-13 20:56:00
2:56 PM,63.0,8.1,11,29.84,-9999.0,South,4.6,-,N/A,,Unknown,170,2012-12-13 21:56:00
5:56 PM,39.0,9.0,29,29.92,-9999.0,South,6.9,-,N/A,,Unknown,170,2012-12-14 00:56:00
6:56 PM,39.0,10.0,30,29.94,-9999.0,SW,10.4,-,N/A,,Unknown,220,2012-12-14 01:56:00
7:56 PM,41.0,10.0,28,29.91,-9999.0,SW,12.7,-,N/A,,Unknown,220,2012-12-14 02:56:00
8:56 PM,39.0,10.9,32,29.88,-9999.0,SW,13.8,-,N/A,,Unknown,220,2012-12-14 03:56:00
9:56 PM,37.9,10.9,33,29.87,-9999.0,WSW,9.2,-,N/A,,Unknown,250,2012-12-14 04:56:00
10:56 PM,37.9,12.0,35,29.86,-9999.0,West,8.1,-,N/A,,Unknown,280,2012-12-14 05:56:00
11:56 PM,37.0,12.9,37,29.82,-9999.0,West,10.4,-,N/A,,Unknown,280,2012-12-14 06:56:00